Showing default

GUANGCHUAN 02, 62112

Orbit data source: Space-Track

GUANGCHUAN 02, 62112 is a payload satellite owned by Hongqing Keji (CN) in LEO that was launched on Wed, 27 Nov 2024 UTC via a ZHUQUE-2E launch vehicle from the Jiuquan Satellite Launch Center, China (JSC). Payload-class satellites include a variety of spacecraft equipped with specific instruments for various scientific and technological missions. These include communications satellites like Starlink; space stations such as the ISS; scientific satellites like the Hubble; Earth observation satellites from companies like Planet Labs, Umbra, and HawkEye 360; GPS; miniature CubeSats for education and research; and military/defense satellites.

Loading next visibility...
Identifier
62112, 2024-221B
Orbit
LEO
Country
Flag of CNCN / PRC
Related business
Manufacturer
CAST?
Mission
Operational Commercial Communications
Bus & Motor
HQ, Unknown motor
Mass
~500 kg wet, ~500 kg dry
Launch date (UTC)
2024-11-27 (11 months ago)
Launch vehicle
ZHUQUE-2E
Launch site
Jiuquan Satellite Launch Center, China (JSC)
Object type
Payload
Rocket body
Debris
Shape & HBR
Box + 2 Pan, 3.0 m
Radar Cross Section
4.560 m², Large (>1 m²)

Expand to show TLE details & history
Last TLE update: 6 hours ago

TLE from 6 hours ago
0 GUANGCHUAN 02
1 62112U 24221B   25310.94433432  .00006629  00000-0  36284-3 0  9995
2 62112  49.9415 165.2648 0007507 168.9539 191.1578 15.15288887 52471
Epoch: 2025-11-06T22:39Z
TLE epoch observation values (Epoch: 2025-11-06T22:39:50.485Z)
Latitude
-0°
Longitude
138.90906°
Altitude
525.727 km
Speed
7.599 km/s
True Right ascension
11h 01m 03s
True Declination
0° 00' 00"
Sunlit
Object was in daylight at epoch
Visualization orbit readout
Latitude
Unknown
Longitude
Unknown
Altitude
Unknown
Speed
Unknown
Apparent Right ascension
Unknown
Apparent Declination
Unknown
Sunlit
N/A
Visualization observer readout
Local Sidereal Time
01:04:33
Azimuth
Unknown
Elevation
Unknown
Doppler factor
Unknown
Orbital elements
Apogee altitude
526.059 km
Perigee altitude
515.701 km
Semi-major axis
6,899.017 km
Eccentricity
0.00075
Inclination
49.9415°
RAAN
165.2648°
Arg. of periapsis
168.9539°
True anomaly
191.14117°
Mean anomaly
191.1578°
Eccentric anomaly
191.14948°
Mean motion
3.78758 °/min
Orbital period
95.05 mins
BSTAR
0.00036284
Loading maneuver chart data...
Computing Atmospheric mass density...
Loading historical data...
Loading historical data...
Loading historical data...
Loading historical data...
Loading historical data...
Loading historical data...
Loading historical data...
Other satellites on launch #221 in the year 2024 (2024-11-27 UTC)

Documentation

Showing up to 5 results
|